GW4058 Weather Reports


time (UTC)temp
C
wind
direction
speed
KPH
gust
KPH
rain 1hr
cm
rain 24hr
cm
rain mn
cm
humidity
%
barometer
mb
20260504110558 7 3.2 8.0 0.00 0.00 0.00 81 1014.9
20260504100520 7 1.6 8.0 0.00 0.00 0.00 77 1015.0
20260504081520 6 0.0 3.2 0.00 0.00 0.00 86 1015.3
20260504080522 5 0.0 0.0 0.00 0.00 0.00 86 1015.4
20260504050542 3 0.0 0.0 0.00 0.00 0.00 87 1015.9
20260504045522 3 0.0 1.6 0.00 0.00 0.00 86 1015.9
20260504044542 3 0.0 1.6 0.00 0.00 0.00 85 1015.8
20260504043516 4 0.0 0.0 0.00 0.00 0.00 84 1015.8
20260504042518 4 0.0 3.2 0.00 0.00 0.00 84 1015.7
20260504041520 3 0.0 4.8 0.00 0.00 0.00 85 1015.8
20260504040517 4 1.6 4.8 0.00 0.00 0.00 83 1015.7
20260504035524 4 1.6 6.4 0.00 0.00 0.00 82 1015.7
20260504034518 4 1.6 6.4 0.00 0.00 0.00 79 1015.6
20260504033518 5 1.6 6.4 0.00 0.00 0.00 78 1015.6
20260504032521 5 4.8 6.4 0.00 0.00 0.00 76 1015.4
20260504031518 5 4.8 8.0 0.00 0.00 0.00 78 1015.3
20260504030521 5 3.2 8.0 0.00 0.00 0.00 75 1015.2
20260504025519 5 1.6 6.4 0.00 0.00 0.00 73 1015.2
20260504024519 6 1.6 6.4 0.00 0.00 0.00 73 1015.2
20260504023542 6 3.2 6.4 0.00 0.00 0.00 72 1015.2
20260504022522 6 1.6 4.8 0.00 0.00 0.00 69 1015.2
20260504021536 6 4.8 8.0 0.00 0.00 0.00 65 1015.1
20260504020519 7 3.2 6.4 0.00 0.00 0.00 69 1015.1
20260504015604 7 3.2 8.0 0.00 0.00 0.00 65 1015.0
20260504014537 7 1.6 6.4 0.00 0.00 0.00 63 1015.0
20260504013517 8 3.2 8.0 0.00 0.00 0.00 63 1015.1
20260504012537 8 1.6 6.4 0.00 0.00 0.00 62 1015.0
20260504011526 9 4.8 8.0 0.00 0.00 0.00 55 1014.8
20260504010522 9 4.8 6.4 0.00 0.00 0.00 54 1014.8
20260504005526 10 4.8 6.4 0.00 0.00 0.00 54 1014.7
20260504004519 11 3.2 6.4 0.00 0.00 0.00 48 1014.6
20260504003541 11 1.6 4.8 0.00 0.00 0.00 44 1014.5
20260504002518 11 3.2 6.4 0.00 0.00 0.00 45 1014.4
20260504001522 13 6.4 9.7 0.00 0.00 0.00 43 1014.3
20260504000522 13 4.8 8.0 0.00 0.00 0.00 39 1014.2
20260503235519 15 3.2 11.3 0.00 0.00 0.00 37 1014.2
20260503234537 15 8.0 14.5 0.00 0.00 0.00 36 1014.0
20260503233522 15 9.7 14.5 0.00 0.00 0.00 35 1014.0
20260503232522 15 9.7 14.5 0.00 0.00 0.00 35 1013.9
20260503231606 15 9.7 14.5 0.00 0.00 0.00 35 1013.7
20260503230516 15 9.7 14.5 0.00 0.00 0.00 35 1013.7
20260503225517 16 9.7 14.5 0.00 0.00 0.00 35 1013.7
20260503224523 16 9.7 19.3 0.00 0.00 0.00 35 1013.8
20260503223518 15 9.7 20.9 0.00 0.00 0.00 34 1013.8
20260503222522 15 9.7 19.3 0.00 0.00 0.00 34 1013.8
20260503221520 15 14.5 24.1 0.00 0.00 0.00 35 1013.7
20260503220520 15 11.3 17.7 0.00 0.00 0.00 35 1013.8
20260503215539 15 16.1 20.9 0.00 0.00 0.00 35 1013.8
20260503214521 15 14.5 19.3 0.00 0.00 0.00 35 1013.8
20260503213541 15 14.5 20.9 0.00 0.00 0.00 35 1013.8
20260503212521 15 12.9 22.5 0.00 0.00 0.00 36 1013.8
20260503211543 15 14.5 22.5 0.00 0.00 0.00 36 1013.8
20260503210522 15 12.9 19.3 0.00 0.00 0.00 36 1013.8
20260503205522 15 12.9 22.5 0.00 0.00 0.00 36 1013.9
20260503204519 15 11.3 20.9 0.00 0.00 0.00 37 1013.8
20260503203522 15 12.9 25.7 0.00 0.00 0.00 37 1013.9
20260503202517 14 12.9 24.1 0.00 0.00 0.00 37 1014.0
20260503201522 14 11.3 17.7 0.00 0.00 0.00 37 1014.2
20260503200523 14 14.5 20.9 0.00 0.00 0.00 36 1014.2
20260503195517 14 9.7 17.7 0.00 0.00 0.00 39 1014.3
20260503194521 14 11.3 17.7 0.00 0.00 0.00 39 1014.5
20260503193518 14 9.7 19.3 0.00 0.00 0.00 39 1014.7
20260503192543 13 9.7 16.1 0.00 0.00 0.00 40 1014.8
20260503191537 13 11.3 17.7 0.00 0.00 0.00 41 1015.0
20260503190521 13 9.7 17.7 0.00 0.00 0.00 41 1014.9
20260503185520 13 9.7 20.9 0.00 0.00 0.00 41 1015.2
20260503184521 13 8.0 16.1 0.00 0.00 0.00 43 1015.2
20260503183521 12 9.7 16.1 0.00 0.00 0.00 42 1015.4
20260503182521 12 8.0 12.9 0.00 0.00 0.00 43 1015.4
20260503181521 12 6.4 16.1 0.00 0.00 0.00 44 1015.4
20260503180543 12 11.3 17.7 0.00 0.00 0.00 42 1015.5
20260503175520 12 11.3 20.9 0.00 0.00 0.00 43 1015.6
20260503174520 11 9.7 20.9 0.00 0.00 0.00 44 1015.8
20260503173523 11 11.3 17.7 0.00 0.00 0.00 44 1015.7
20260503172522 11 11.3 24.1 0.00 0.00 0.00 44 1015.7
20260503171518 11 11.3 16.1 0.00 0.00 0.00 45 1016.0
20260503170524 10 8.0 14.5 0.00 0.00 0.00 47 1016.0
20260503150522 8 11.3 19.3 0.00 0.00 0.00 48 1016.5
20260503130523 7 8.0 20.9 0.00 0.00 0.00 56 1016.6